Powrót do katalogu

THORAD AGENA D DEB

AktywnyPO
NORAD 4752·DEBRIS·🇺🇸 United States

Wystrzelony Apr 8, 1970 z Vandenberg Space Force Base

Loading…

Następne Przeloty (najbliższe 24 godziny)

TLE

ŚwieżeSource: Space-Track

Epoka: Sep 14, 2026, 20:35 UTC

1 04752U 70025DA  26257.85765006  .00002345  00000-0  11718-2 0  9995
2 04752  99.8926  53.8790 0020691 197.3106 162.7362 14.17856779846785

Śledź THORAD AGENA D DEB w czasie rzeczywistym z AllMySat

Download on the App Store